Time,TemperatureF,DewpointF,PressureIn,WindDirection,WindDirectionDegrees,WindSpeedMPH,WindSpeedGustMPH,Humidity,HourlyPrecipIn,Conditions,Clouds,dailyrainin,SolarRadiationWatts/m^2,SoftwareType,DateUTC
2013-05-12 00:03:00,-999.0,-99.9,-100.00,NNW,341,5.0,15.0,79,0.00,,,0.39,0.000000,,2013-05-12 04:03:00,
2013-05-12 00:33:00,54.0,49.0,-100.00,NNW,328,3.0,9.0,84,0.00,,,0.39,0.000000,,2013-05-12 04:33:00,
2013-05-12 00:43:00,54.0,49.0,-100.00,NNW,328,3.0,9.0,84,0.00,,,0.39,0.000000,,2013-05-12 04:43:00,
2013-05-12 00:52:00,54.0,49.0,-100.00,NNW,328,3.0,9.0,84,0.00,,,0.39,0.000000,,2013-05-12 04:52:00,
2013-05-12 01:02:00,54.0,49.0,-100.00,NNW,328,3.0,9.0,84,0.00,,,0.39,0.000000,,2013-05-12 05:02:00,
2013-05-12 01:32:00,54.0,50.0,-100.00,North,353,4.0,12.0,87,0.00,,,0.39,0.000000,,2013-05-12 05:32:00,
2013-05-12 01:42:00,54.0,50.0,-100.00,North,353,4.0,12.0,87,0.00,,,0.39,0.000000,,2013-05-12 05:42:00,
2013-05-12 01:52:00,54.0,50.0,-100.00,North,353,4.0,12.0,87,0.00,,,0.39,0.000000,,2013-05-12 05:52:00,
2013-05-12 02:02:00,54.0,50.0,-100.00,North,353,4.0,12.0,87,0.00,,,0.39,0.000000,,2013-05-12 06:02:00,
2013-05-12 02:32:00,51.0,48.0,-100.00,North,359,1.0,9.0,90,0.00,,,0.39,0.000000,,2013-05-12 06:32:00,
2013-05-12 02:42:00,51.0,48.0,-100.00,North,359,1.0,9.0,90,0.00,,,0.39,0.000000,,2013-05-12 06:42:00,
2013-05-12 02:52:00,51.0,48.0,-100.00,North,359,1.0,9.0,90,0.00,,,0.39,0.000000,,2013-05-12 06:52:00,
2013-05-12 03:02:00,51.0,48.0,-100.00,North,359,1.0,9.0,90,0.00,,,0.39,0.000000,,2013-05-12 07:02:00,
2013-05-12 03:32:00,52.0,49.0,-100.00,North,351,2.0,8.0,89,0.00,,,0.39,0.000000,,2013-05-12 07:32:00,
2013-05-12 03:42:00,52.0,49.0,-100.00,North,351,2.0,8.0,89,0.00,,,0.39,0.000000,,2013-05-12 07:42:00,
2013-05-12 03:52:00,52.0,49.0,-100.00,North,351,2.0,8.0,89,0.00,,,0.39,0.000000,,2013-05-12 07:52:00,
2013-05-12 04:02:00,52.0,49.0,-100.00,North,351,2.0,8.0,89,0.00,,,0.39,0.000000,,2013-05-12 08:02:00,
2013-05-12 04:32:00,52.0,49.0,-100.00,NNW,347,2.0,6.0,88,0.00,,,0.39,0.000000,,2013-05-12 08:32:00,
2013-05-12 04:42:00,52.0,49.0,-100.00,NNW,347,2.0,6.0,88,0.00,,,0.39,0.000000,,2013-05-12 08:42:00,
2013-05-12 04:53:00,52.0,49.0,-100.00,NNW,347,2.0,6.0,88,0.00,,,0.39,0.000000,,2013-05-12 08:53:00,
2013-05-12 05:01:00,52.0,49.0,-100.00,NNW,347,2.0,6.0,88,0.00,,,0.39,0.000000,,2013-05-12 09:01:00,
2013-05-12 05:33:00,53.0,49.0,-100.00,NNW,345,3.0,7.0,87,0.00,,,0.39,0.000000,,2013-05-12 09:33:00,
2013-05-12 05:43:00,53.0,49.0,-100.00,NNW,345,3.0,7.0,87,0.00,,,0.39,0.000000,,2013-05-12 09:43:00,
2013-05-12 05:53:00,53.0,49.0,-100.00,NNW,345,3.0,7.0,87,0.00,,,0.39,0.000000,,2013-05-12 09:53:00,
2013-05-12 06:03:00,53.0,49.0,-100.00,NNW,345,3.0,7.0,87,0.00,,,0.39,0.000000,,2013-05-12 10:03:00,
2013-05-12 06:33:00,51.0,48.0,-100.00,North,354,5.0,10.0,90,0.00,,,0.39,0.000000,,2013-05-12 10:33:00,
2013-05-12 06:42:00,51.0,48.0,-100.00,North,354,5.0,10.0,90,0.00,,,0.39,0.000000,,2013-05-12 10:42:00,
2013-05-12 06:52:00,51.0,48.0,-100.00,North,354,5.0,10.0,90,0.00,,,0.39,0.000000,,2013-05-12 10:52:00,
2013-05-12 07:02:00,51.0,48.0,-100.00,North,354,5.0,10.0,90,0.00,,,0.39,0.000000,,2013-05-12 11:02:00,
2013-05-12 07:32:00,49.0,46.0,-100.00,North,359,6.0,16.0,90,0.00,,,0.39,6.000000,,2013-05-12 11:32:00,
2013-05-12 07:42:00,49.0,46.0,-100.00,North,359,6.0,16.0,90,0.00,,,0.39,6.000000,,2013-05-12 11:42:00,
2013-05-12 07:52:00,49.0,46.0,-100.00,North,359,6.0,16.0,90,0.00,,,0.39,6.000000,,2013-05-12 11:52:00,
2013-05-12 08:02:00,49.0,46.0,-100.00,North,359,6.0,16.0,90,0.00,,,0.39,6.000000,,2013-05-12 12:02:00,
2013-05-12 09:32:00,51.0,44.0,-100.00,North,355,6.0,12.0,78,-99.99,,,0.39,365.000000,,2013-05-12 13:32:00,
2013-05-12 09:42:00,51.0,44.0,-100.00,North,355,6.0,12.0,78,-99.99,,,0.39,365.000000,,2013-05-12 13:42:00,
2013-05-12 09:52:00,51.0,44.0,-100.00,North,355,6.0,12.0,78,-99.99,,,0.39,365.000000,,2013-05-12 13:52:00,
2013-05-12 10:01:00,51.0,44.0,-100.00,North,355,6.0,12.0,78,-99.99,,,0.39,365.000000,,2013-05-12 14:01:00,
2013-05-12 10:32:00,53.0,37.0,-100.00,North,358,7.0,14.0,55,0.00,,,0.39,643.000000,,2013-05-12 14:32:00,
2013-05-12 10:42:00,53.0,37.0,-100.00,North,358,7.0,14.0,55,0.00,,,0.39,643.000000,,2013-05-12 14:42:00,
2013-05-12 10:52:00,53.0,37.0,-100.00,North,358,7.0,14.0,55,0.00,,,0.39,643.000000,,2013-05-12 14:52:00,
2013-05-12 11:01:00,53.0,37.0,-100.00,North,358,7.0,14.0,55,0.00,,,0.39,643.000000,,2013-05-12 15:01:00,
2013-05-12 11:34:00,54.0,37.0,-100.00,North,355,6.0,17.0,52,0.00,,,-99.99,863.000000,,2013-05-12 15:34:00,
2013-05-12 11:42:00,54.0,37.0,-100.00,North,355,6.0,17.0,52,0.00,,,-99.99,863.000000,,2013-05-12 15:42:00,
2013-05-12 11:53:00,54.0,37.0,-100.00,North,355,6.0,17.0,52,0.00,,,-99.99,863.000000,,2013-05-12 15:53:00,
2013-05-12 12:02:00,54.0,37.0,-100.00,North,355,6.0,17.0,52,0.00,,,-99.99,863.000000,,2013-05-12 16:02:00,
2013-05-12 12:33:00,56.0,37.0,-100.00,North,353,7.0,13.0,48,0.00,,,0.38,1030.000000,,2013-05-12 16:33:00,
2013-05-12 12:42:00,56.0,37.0,-100.00,North,353,7.0,13.0,48,0.00,,,0.38,1030.000000,,2013-05-12 16:42:00,
2013-05-12 12:53:00,56.0,37.0,-100.00,North,353,7.0,13.0,48,0.00,,,0.38,1030.000000,,2013-05-12 16:53:00,
2013-05-12 13:02:00,56.0,37.0,-100.00,North,353,7.0,13.0,48,0.00,,,0.38,1030.000000,,2013-05-12 17:02:00,
2013-05-12 13:32:00,58.0,37.0,-100.00,North,353,6.0,15.0,45,0.00,,,-99.99,1097.000000,,2013-05-12 17:32:00,
2013-05-12 13:42:00,58.0,37.0,-100.00,North,353,6.0,15.0,45,0.00,,,-99.99,1097.000000,,2013-05-12 17:42:00,
2013-05-12 13:53:00,58.0,37.0,-100.00,North,353,6.0,15.0,45,0.00,,,-99.99,1097.000000,,2013-05-12 17:53:00,
2013-05-12 14:01:00,58.0,37.0,-100.00,North,353,6.0,15.0,45,0.00,,,-99.99,1097.000000,,2013-05-12 18:01:00,
2013-05-12 14:32:00,59.0,36.0,-100.00,NNE,21,5.0,14.0,42,0.00,,,0.37,1121.000000,,2013-05-12 18:32:00,
2013-05-12 14:42:00,59.0,36.0,-100.00,NNE,21,5.0,14.0,42,0.00,,,0.37,1121.000000,,2013-05-12 18:42:00,
2013-05-12 14:52:00,59.0,36.0,-100.00,NNE,21,5.0,14.0,42,0.00,,,0.37,1121.000000,,2013-05-12 18:52:00,
2013-05-12 15:01:00,59.0,36.0,-100.00,NNE,21,5.0,14.0,42,0.00,,,0.37,1121.000000,,2013-05-12 19:01:00,
2013-05-12 15:32:00,59.0,33.0,-100.00,NW,305,7.0,15.0,38,0.00,,,0.37,1073.000000,,2013-05-12 19:32:00,
2013-05-12 15:42:00,59.0,33.0,-100.00,NW,305,7.0,15.0,38,0.00,,,0.37,1073.000000,,2013-05-12 19:42:00,
2013-05-12 15:52:00,59.0,33.0,-100.00,NW,305,7.0,15.0,38,0.00,,,0.37,1073.000000,,2013-05-12 19:52:00,
2013-05-12 16:02:00,59.0,33.0,-100.00,NW,305,7.0,15.0,38,0.00,,,0.37,1073.000000,,2013-05-12 20:02:00,
2013-05-12 16:32:00,61.0,33.0,-100.00,WSW,249,7.0,15.0,35,0.00,,,0.23,968.000000,,2013-05-12 20:32:00,
2013-05-12 16:42:00,61.0,33.0,-100.00,WSW,249,7.0,15.0,35,0.00,,,0.23,968.000000,,2013-05-12 20:42:00,
2013-05-12 16:52:00,61.0,33.0,-100.00,WSW,249,7.0,15.0,35,0.00,,,0.23,968.000000,,2013-05-12 20:52:00,
2013-05-12 17:01:00,61.0,33.0,-100.00,WSW,249,7.0,15.0,35,0.00,,,0.23,968.000000,,2013-05-12 21:01:00,
2013-05-12 17:33:00,61.0,32.0,-100.00,NNW,343,6.0,14.0,34,0.00,,,0.23,803.000000,,2013-05-12 21:33:00,
2013-05-12 17:42:00,61.0,32.0,-100.00,NNW,343,6.0,14.0,34,0.00,,,0.23,803.000000,,2013-05-12 21:42:00,
2013-05-12 17:53:00,61.0,32.0,-100.00,NNW,343,6.0,14.0,34,0.00,,,0.23,803.000000,,2013-05-12 21:53:00,
2013-05-12 18:02:00,61.0,32.0,-100.00,NNW,343,6.0,14.0,34,0.00,,,0.23,803.000000,,2013-05-12 22:02:00,
2013-05-12 18:33:00,61.0,31.0,-100.00,WNW,302,6.0,17.0,32,0.00,,,0.23,593.000000,,2013-05-12 22:33:00,
2013-05-12 18:42:00,61.0,31.0,-100.00,WNW,302,6.0,17.0,32,0.00,,,0.23,593.000000,,2013-05-12 22:42:00,
2013-05-12 18:52:00,61.0,31.0,-100.00,WNW,302,6.0,17.0,32,0.00,,,0.23,593.000000,,2013-05-12 22:52:00,
2013-05-12 19:02:00,61.0,31.0,-100.00,WNW,302,6.0,17.0,32,0.00,,,0.23,593.000000,,2013-05-12 23:02:00,
2013-05-12 19:32:00,60.0,31.0,-100.00,NW,307,5.0,21.0,33,0.00,,,0.00,360.000000,,2013-05-12 23:32:00,
2013-05-12 19:42:00,60.0,31.0,-100.00,NW,307,5.0,21.0,33,0.00,,,0.00,360.000000,,2013-05-12 23:42:00,
2013-05-12 19:52:00,60.0,31.0,-100.00,NW,307,5.0,21.0,33,0.00,,,0.00,360.000000,,2013-05-12 23:52:00,
2013-05-12 20:01:00,60.0,31.0,-100.00,NW,307,5.0,21.0,33,0.00,,,0.00,360.000000,,2013-05-13 00:01:00,
2013-05-12 20:32:00,57.0,29.0,-100.00,West,265,3.0,15.0,34,0.00,,,0.00,139.000000,,2013-05-13 00:32:00,
2013-05-12 20:42:00,57.0,29.0,-100.00,West,265,3.0,15.0,34,0.00,,,0.00,139.000000,,2013-05-13 00:42:00,
2013-05-12 20:52:00,57.0,29.0,-100.00,West,265,3.0,15.0,34,0.00,,,0.00,139.000000,,2013-05-13 00:52:00,
2013-05-12 21:01:00,57.0,29.0,-100.00,West,265,3.0,15.0,34,0.00,,,0.00,139.000000,,2013-05-13 01:01:00,
2013-05-12 21:32:00,49.0,30.0,-100.00,SSE,164,3.0,8.0,48,0.00,,,0.00,9.000000,,2013-05-13 01:32:00,
2013-05-12 21:42:00,49.0,30.0,-100.00,SSE,164,3.0,8.0,48,0.00,,,0.00,9.000000,,2013-05-13 01:42:00,
2013-05-12 21:52:00,49.0,30.0,-100.00,SSE,164,3.0,8.0,48,0.00,,,0.00,9.000000,,2013-05-13 01:52:00,
2013-05-12 22:02:00,49.0,30.0,-100.00,SSE,164,3.0,8.0,48,0.00,,,0.00,9.000000,,2013-05-13 02:02:00,
2013-05-12 22:32:00,49.0,33.0,-100.00,ESE,102,2.0,6.0,54,0.00,,,0.00,0.000000,,2013-05-13 02:32:00,
2013-05-12 22:42:00,49.0,33.0,-100.00,ESE,102,2.0,6.0,54,0.00,,,0.00,0.000000,,2013-05-13 02:42:00,
2013-05-12 22:52:00,49.0,33.0,-100.00,ESE,102,2.0,6.0,54,0.00,,,0.00,0.000000,,2013-05-13 02:52:00,
2013-05-12 23:02:00,49.0,33.0,-100.00,ESE,102,2.0,6.0,54,0.00,,,0.00,0.000000,,2013-05-13 03:02:00,
2013-05-12 23:33:00,50.0,31.0,-100.00,North,358,5.0,10.0,47,0.00,,,0.00,0.000000,,2013-05-13 03:33:00,
2013-05-12 23:42:00,50.0,31.0,-100.00,North,358,5.0,10.0,47,0.00,,,0.00,0.000000,,2013-05-13 03:42:00,
2013-05-12 23:53:00,50.0,31.0,-100.00,North,358,5.0,10.0,47,0.00,,,0.00,0.000000,,2013-05-13 03:53:00,